Flag for Sweden Weather past 2 weeks in Södertälje, Sweden

Now
75 °F

Sunny.


Feels Like: 78 °F
Forecast: 63 / 78 °F
Wind: 9 mph from South

Location: Stockholm Bromma Airport

Current Time: Jul 2, 2015 at 9:13:05 PM

Latest Report: Jul 2, 2015 at 8:50 PM


Visibility: 10 mi

Pressure: 30.30 "Hg

Humidity: 47%

Dew point: 54 °F

Location of SödertäljeLocation

Historic Weather in Södertälje — Graph

°F

Södertälje temperature yesterday

Maximum temperature yesterday: 75 °F (at 1:50 PM)
Minimum temperature yesterday: 50 °F (at 4:20 AM)
Average temperature yesterday: 66 °F

Past Weeks' High & Low Weather Summary

 TemperatureHumidityPressure
High84 °F (Jul 2, 3:50 PM)100% (Jun 18, 4:20 AM)30.36 "Hg (Jun 18, 4:20 AM)
Low43 °F (Jun 21, 3:20 AM)30% (Jul 2, 1:20 PM)29.56 "Hg (Jun 18, 7:20 AM)
Average59 °F74%29.86 "Hg
* Reported Jun 17 7:20 PM — Jul 2 7:50 PM, Södertälje, Weather by CustomWeather, © 2015

Note: Actual official high and low records may vary slightly from our data, if they occured in-between our weather recording intervals... More about our weather records

Advertising

Södertälje weather history for previous 24 hours

 ConditionsComfort  
Time TempWeatherWind HumidityBarometerVisibility
7:50 PM
Thu, Jul 2
79 °FSunny.10 mph45%30.30 "Hg10 mi
7:20 PM81 °FPassing clouds.9 mph42%30.30 "HgN/A
6:50 PM81 °FSunny.8 mph42%30.30 "Hg10 mi
6:20 PM82 °FSunny.9 mph37%30.30 "Hg10 mi
5:50 PM84 °FPassing clouds.7 mph33%30.30 "HgN/A
5:20 PM84 °FSunny.8 mph33%30.30 "Hg10 mi
4:50 PM84 °FSunny.8 mph33%30.30 "Hg10 mi
4:20 PM84 °FPassing clouds.8 mph31%30.33 "HgN/A
3:50 PM84 °FSunny.10 mph33%30.33 "Hg10 mi
3:20 PM82 °FSunny.9 mph32%30.33 "Hg10 mi
2:50 PM82 °FPassing clouds.10 mph35%30.33 "HgN/A
2:20 PM82 °FPassing clouds.10 mph32%30.33 "HgN/A
1:50 PM82 °FPassing clouds.9 mph32%30.33 "HgN/A
1:20 PM82 °FSunny.9 mph30%30.33 "Hg10 mi
12:50 PM81 °FSunny.8 mph32%30.36 "Hg10 mi
12:20 PM81 °FSunny.12 mph32%30.36 "Hg10 mi
11:50 AM79 °FPassing clouds.9 mph39%30.36 "HgN/A
11:20 AM79 °FSunny.10 mph39%30.36 "Hg10 mi
10:50 AM79 °FSunny.8 mph42%30.36 "Hg10 mi
10:20 AM77 °FSunny.9 mph47%30.36 "Hg10 mi
9:50 AM77 °FSunny.8 mph44%30.33 "Hg10 mi
9:20 AM75 °FPassing clouds.6 mph50%30.33 "HgN/A
8:50 AM73 °FSunny.7 mph53%30.33 "Hg10 mi
8:20 AM73 °FSunny.8 mph53%30.33 "Hg10 mi
7:50 AM72 °FSunny.6 mph53%30.33 "Hg10 mi
7:20 AM70 °FPassing clouds.6 mph60%30.33 "HgN/A
6:50 AM68 °FSunny.6 mph64%30.33 "Hg10 mi
6:20 AM66 °FSunny.3 mph68%30.33 "Hg10 mi
5:50 AM64 °FSunny.No wind73%30.33 "Hg10 mi
9:50 PM
Wed, Jul 1
68 °FSunny.6 mph60%30.24 "Hg10 mi
9:20 PM70 °FSunny.6 mph53%30.24 "Hg10 mi
Weather by CustomWeather, © 2015

See weather overviewHow to use our weather pages